sat.trackr.live / text

‹ back to catalog

GARAI-B (UNAMUNO)

NORAD 68463 · 2026-067AZ

PAYLOAD ACTIVE UNKNOWN

§ Identity

Operator
Country
SPN
Launch date
2026-03-30
Launch site
AFWTR
Launch vehicle
Mass (kg)
RCS (m²)

External: N2YO · Heavens-Above · Gunter

§ Orbital elements

Epoch: 2026-09-19T07:30:53.486784Z

Period
95.08 min
Inclination
97.4633°
Eccentricity
0.0005137
Mean motion
15.14486275 rev/d
Perigee alt
519.0 km
Apogee alt
526.1 km
Semi-major
6,900.7 km
B*
1.9219e-4
RAAN
219.1639°
Arg perigee
99.3417°
Mean anomaly
260.8396°
Rev number
2,620

§ Raw data

GARAI-B (UNAMUNO)1 68463U 26067AZ  26262.31311906  .00003472  00000+0  19219-3 0  99902 68463  97.4633 219.1639 0005137  99.3417 260.8396 15.14486275 26208

JSON: /api/v1/satellites/68463 · /tle

For live sub-satellite position, see the globe view (requires WebGL).

§ Visibility from observer

Set your observer location to see the next 7 days of passes ≥ 10°. The values pass through the URL so the page stays shareable.

No JS? Fill the form by hand. The geolocation button needs JavaScript.